FW3706 Weather Reports


Display with metric or nautical units.
time (UTC)temp
F
wind
direction
speed
MPH
gust
MPH
rain 1hr
in
rain 24hr
in
rain mn
in
humidity
%
barometer
mb
20260508203017 91 263 6.0 17.0 0.00 0.00 0.00 14 1012.7
20260508202506 91 271 8.0 17.0 0.00 0.00 0.00 14 1012.7
20260508202006 91 259 7.0 16.0 0.00 0.00 0.00 14 1012.8
20260508201514 92 354 7.0 14.0 0.00 0.00 0.00 13 1012.9
20260508201008 91 306 6.0 12.0 0.00 0.00 0.00 13 1013.0
20260508200507 92 314 7.0 12.0 0.00 0.00 0.00 14 1012.9
20260508200010 91 229 5.0 15.0 0.00 0.00 0.00 14 1012.9
20260508195511 90 1 8.0 16.0 0.00 0.00 0.00 14 1012.9
20260508195006 91 308 5.0 16.0 0.00 0.00 0.00 15 1013.0
20260508194515 91 247 6.0 14.0 0.00 0.00 0.00 14 1013.0
20260508194007 90 298 4.0 14.0 0.00 0.00 0.00 15 1013.1
20260508193507 91 304 6.0 14.0 0.00 0.00 0.00 15 1013.2
20260508193015 91 270 8.0 14.0 0.00 0.00 0.00 14 1013.3
20260508192503 91 231 4.0 12.0 0.00 0.00 0.00 15 1013.4
20260508192009 90 55 3.0 12.0 0.00 0.00 0.00 16 1013.4
20260508191530 89 49 3.0 12.0 0.00 0.00 0.00 16 1013.4
20260508191002 89 41 6.0 14.0 0.00 0.00 0.00 16 1013.7
20260508190505 88 39 4.0 14.0 0.00 0.00 0.00 16 1013.7
20260508190015 90 57 4.0 14.0 0.00 0.00 0.00 16 1013.9
20260508185503 89 56 4.0 11.0 0.00 0.00 0.00 16 1013.9
20260508185007 89 53 2.0 11.0 0.00 0.00 0.00 16 1013.9
20260508184510 88 43 2.0 9.0 0.00 0.00 0.00 16 1014.0
20260508184002 87 41 4.0 9.0 0.00 0.00 0.00 16 1014.0
20260508183509 87 49 4.0 8.0 0.00 0.00 0.00 17 1014.1
20260508183011 88 53 4.0 7.0 0.00 0.00 0.00 17 1014.2
20260508182506 87 10 2.0 12.0 0.00 0.00 0.00 17 1014.3
20260508182008 86 9 6.0 12.0 0.00 0.00 0.00 17 1014.4
20260508181513 87 300 4.0 9.0 0.00 0.00 0.00 17 1014.3
20260508181007 87 299 2.0 8.0 0.00 0.00 0.00 17 1014.3
20260508180508 87 285 3.0 7.0 0.00 0.00 0.00 17 1014.3
20260508180012 87 246 1.0 6.0 0.00 0.00 0.00 17 1014.4
20260508175512 86 278 2.0 7.0 0.00 0.00 0.00 18 1014.5
20260508175009 85 294 1.0 7.0 0.00 0.00 0.00 18 1014.7
20260508174514 86 311 2.0 7.0 0.00 0.00 0.00 18 1014.8
20260508174008 85 262 0.0 4.0 0.00 0.00 0.00 18 1014.9
20260508173508 84 254 0.0 4.0 0.00 0.00 0.00 18 1014.9
20260508173011 85 262 1.0 4.0 0.00 0.00 0.00 19 1014.9
20260508172510 84 274 0.0 5.0 0.00 0.00 0.00 19 1015.0
20260508172010 83 274 2.0 5.0 0.00 0.00 0.00 20 1015.0
20260508171510 83 226 1.0 5.0 0.00 0.00 0.00 20 1015.1
20260508171009 82 226 2.0 5.0 0.00 0.00 0.00 20 1015.1
20260508170506 81 239 1.0 4.0 0.00 0.00 0.00 21 1015.1
20260508170013 81 238 1.0 4.0 0.00 0.00 0.00 22 1015.2
20260508165511 81 238 0.0 4.0 0.00 0.00 0.00 22 1015.2
20260508165010 81 242 1.0 4.0 0.00 0.00 0.00 22 1015.3
20260508164516 80 154 1.0 4.0 0.00 0.00 0.00 23 1015.3
20260508164009 79 184 0.0 4.0 0.00 0.00 0.00 24 1015.3
20260508163507 79 185 1.0 4.0 0.00 0.00 0.00 23 1015.4
20260508163013 79 185 1.0 4.0 0.00 0.00 0.00 24 1015.4
20260508162507 78 360 1.0 5.0 0.00 0.00 0.00 25 1015.4
20260508162006 78 360 1.0 5.0 0.00 0.00 0.00 24 1015.4
20260508161512 77 360 1.0 5.0 0.00 0.00 0.00 26 1015.4
20260508161008 77 360 1.0 5.0 0.00 0.00 0.00 26 1015.4
20260508160507 77 360 2.0 5.0 0.00 0.00 0.00 26 1015.5
20260508160016 77 16 1.0 4.0 0.00 0.00 0.00 27 1015.5
20260508155510 76 12 1.0 4.0 0.00 0.00 0.00 27 1015.5
20260508155008 75 9 1.0 5.0 0.00 0.00 0.00 28 1015.4
20260508154512 75 10 1.0 5.0 0.00 0.00 0.00 28 1015.5
20260508154010 75 8 2.0 6.0 0.00 0.00 0.00 29 1015.4
20260508153507 75 11 1.0 6.0 0.00 0.00 0.00 29 1015.4
20260508153012 74 360 1.0 5.0 0.00 0.00 0.00 29 1015.5
20260508152507 73 13 2.0 6.0 0.00 0.00 0.00 30 1015.5
20260508152007 73 9 1.0 7.0 0.00 0.00 0.00 31 1015.6
20260508151515 72 9 2.0 7.0 0.00 0.00 0.00 31 1015.5
20260508151011 72 140 2.0 6.0 0.00 0.00 0.00 31 1015.5
20260508150507 71 360 2.0 5.0 0.00 0.00 0.00 32 1015.5
20260508150018 71 360 1.0 6.0 0.00 0.00 0.00 33 1015.6
20260508145510 70 360 3.0 6.0 0.00 0.00 0.00 33 1015.6
20260508145007 70 360 1.0 5.0 0.00 0.00 0.00 34 1015.6
20260508144513 69 360 2.0 8.0 0.00 0.00 0.00 34 1015.6
20260508144007 68 129 3.0 8.0 0.00 0.00 0.00 34 1015.5
20260508143507 68 166 2.0 8.0 0.00 0.00 0.00 35 1015.6
20260508143013 68 150 2.0 7.0 0.00 0.00 0.00 35 1015.5
20260508142506 67 360 2.0 7.0 0.00 0.00 0.00 35 1015.4
20260508142007 67 360 2.0 8.0 0.00 0.00 0.00 35 1015.4
20260508141509 67 126 2.0 8.0 0.00 0.00 0.00 36 1015.3
20260508141010 67 360 4.0 8.0 0.00 0.00 0.00 36 1015.3
20260508140509 66 360 2.0 6.0 0.00 0.00 0.00 37 1015.4
20260508140012 66 360 2.0 6.0 0.00 0.00 0.00 38 1015.3
20260508135514 66 360 1.0 6.0 0.00 0.00 0.00 38 1015.3
20260508135007 65 360 2.0 6.0 0.00 0.00 0.00 39 1015.3
20260508134512 65 360 0.0 4.0 0.00 0.00 0.00 41 1015.2
20260508134010 64 360 0.0 3.0 0.00 0.00 0.00 42 1015.1
20260508133506 63 360 1.0 3.0 0.00 0.00 0.00 44 1015.2
20260508133011 62 102 0.0 2.0 0.00 0.00 0.00 45 1015.1
20260508132507 62 360 0.0 1.0 0.00 0.00 0.00 46 1015.0
20260508132007 61 101 0.0 1.0 0.00 0.00 0.00 47 1015.0
20260508131511 60 360 0.0 1.0 0.00 0.00 0.00 49 1014.9
20260508131010 59 103 0.0 1.0 0.00 0.00 0.00 49 1014.9
20260508130512 59 11 0.0 1.0 0.00 0.00 0.00 50 1014.8
20260508130014 59 10 0.0 2.0 0.00 0.00 0.00 50 1014.7
20260508125512 59 360 0.0 2.0 0.00 0.00 0.00 50 1014.6
20260508125006 59 360 0.0 1.0 0.00 0.00 0.00 50 1014.7
20260508124525 59 360 0.0 1.0 0.00 0.00 0.00 51 1014.6
20260508124009 59 13 0.0 2.0 0.00 0.00 0.00 50 1014.6
20260508123509 59 11 0.0 2.0 0.00 0.00 0.00 50 1014.5
20260508123028 59 8 0.0 1.0 0.00 0.00 0.00 50 1014.4
20260508122508 59 9 0.0 2.0 0.00 0.00 0.00 50 1014.4
20260508122009 59 360 0.0 2.0 0.00 0.00 0.00 49 1014.4
20260508121527 59 360 0.0 2.0 0.00 0.00 0.00 48 1014.2
20260508121011 60 11 0.0 0.0 0.00 0.00 0.00 48 1014.2
20260508120506 60 11 0.0 0.0 0.00 0.00 0.00 47 1014.2
20260508120036 60 11 0.0 0.0 0.00 0.00 0.00 46 1014.2
20260508115510 60 11 0.0 0.0 0.00 0.00 0.00 46 1014.2
20260508115008 60 11 0.0 0.0 0.00 0.00 0.00 46 1014.2
20260508114527 61 360 0.0 0.0 0.00 0.00 0.00 45 1014.2
20260508114010 61 11 0.0 0.0 0.00 0.00 0.00 45 1014.1
20260508113509 61 360 0.0 0.0 0.00 0.00 0.00 45 1014.0
20260508113030 61 11 0.0 0.0 0.00 0.00 0.00 44 1013.9
20260508112515 61 360 0.0 0.0 0.00 0.00 0.00 44 1013.9
20260508112008 61 360 0.0 0.0 0.00 0.00 0.00 44 1013.9
20260508111531 61 360 0.0 0.0 0.00 0.00 0.00 45 1013.9
20260508111008 61 11 0.0 0.0 0.00 0.00 0.00 44 1013.8
20260508110508 61 360 0.0 1.0 0.00 0.00 0.00 44 1013.8
20260508110025 62 360 0.0 1.0 0.00 0.00 0.00 44 1013.8
20260508105509 62 11 0.0 1.0 0.00 0.00 0.00 43 1013.8
20260508105012 62 360 0.0 1.0 0.00 0.00 0.00 43 1013.8
20260508104528 62 360 0.0 0.0 0.00 0.00 0.00 42 1013.7
20260508104008 62 360 0.0 0.0 0.00 0.00 0.00 42 1013.8
20260508103507 62 360 0.0 0.0 0.00 0.00 0.00 42 1013.8
20260508103022 63 360 0.0 0.0 0.00 0.00 0.00 42 1013.8
20260508102500 63 360 0.0 0.0 0.00 0.00 0.00 41 1013.8
20260508102012 63 360 0.0 0.0 0.00 0.00 0.00 39 1013.8
20260508101514 63 360 0.0 0.0 0.00 0.00 0.00 39 1013.8
20260508101002 63 360 0.0 1.0 0.00 0.00 0.00 38 1013.7
20260508100508 64 360 0.0 1.0 0.00 0.00 0.00 38 1013.7
20260508100012 64 360 0.0 1.0 0.00 0.00 0.00 39 1013.7
20260508095501 64 360 0.0 4.0 0.00 0.00 0.00 39 1013.7
20260508095008 64 360 0.0 4.0 0.00 0.00 0.00 39 1013.7
20260508094513 64 360 1.0 4.0 0.00 0.00 0.00 39 1013.6
20260508094001 64 360 0.0 3.0 0.00 0.00 0.00 39 1013.6
20260508093507 64 360 0.0 3.0 0.00 0.00 0.00 39 1013.6
20260508093014 64 360 0.0 3.0 0.00 0.00 0.00 39 1013.6
20260508092500 64 360 0.0 3.0 0.00 0.00 0.00 38 1013.6
20260508092008 64 360 0.0 1.0 0.00 0.00 0.00 37 1013.6
20260508091512 64 360 0.0 1.0 0.00 0.00 0.00 37 1013.7
20260508091001 64 360 0.0 1.0 0.00 0.00 0.00 37 1013.7
20260508090505 64 360 0.0 1.0 0.00 0.00 0.00 38 1013.8
20260508090012 64 360 0.0 1.0 0.00 0.00 0.00 38 1013.8
20260508085502 64 360 0.0 1.0 0.00 0.00 0.00 38 1013.7
20260508085006 65 360 0.0 1.0 0.00 0.00 0.00 37 1013.8
20260508084510 65 360 0.0 3.0 0.00 0.00 0.00 37 1013.8
20260508084001 65 360 0.0 3.0 0.00 0.00 0.00 37 1013.8
20260508083504 65 360 0.0 2.0 0.00 0.00 0.00 38 1013.8
20260508083012 65 360 0.0 2.0 0.00 0.00 0.00 38 1013.8
20260508082501 65 360 0.0 2.0 0.00 0.00 0.00 38 1013.8
20260508082006 65 360 0.0 2.0 0.00 0.00 0.00 38 1013.9
20260508081514 66 360 0.0 2.0 0.00 0.00 0.00 37 1014.0
20260508081005 66 360 0.0 3.0 0.00 0.00 0.00 36 1014.0
20260508080507 67 360 0.0 3.0 0.00 0.00 0.00 36 1014.0
20260508080012 67 360 0.0 3.0 0.00 0.00 0.00 35 1014.1
20260508075501 67 360 0.0 3.0 0.00 0.00 0.00 35 1014.1
20260508075008 67 360 0.0 2.0 0.00 0.00 0.00 35 1014.2
20260508074512 67 360 0.0 0.0 0.00 0.00 0.00 35 1014.3
20260508074001 67 360 0.0 0.0 0.00 0.00 0.00 34 1014.3
20260508073506 67 360 0.0 0.0 0.00 0.00 0.00 34 1014.3
20260508073011 67 360 0.0 1.0 0.00 0.00 0.00 34 1014.4
20260508072508 67 360 0.0 1.0 0.00 0.00 0.00 33 1014.4
20260508072010 68 10 0.0 1.0 0.00 0.00 0.00 33 1014.3
20260508071512 68 11 0.0 1.0 0.00 0.00 0.00 32 1014.3
20260508071008 69 11 0.0 2.0 0.00 0.00 0.00 31 1014.3
20260508070505 69 360 0.0 2.0 0.00 0.00 0.00 31 1014.3
20260508070012 69 360 0.0 2.0 0.00 0.00 0.00 31 1014.3
20260508065509 69 10 0.0 3.0 0.00 0.00 0.00 31 1014.3
20260508065004 69 360 0.0 3.0 0.00 0.00 0.00 30 1014.3
20260508064517 69 360 0.0 3.0 0.00 0.00 0.00 30 1014.4
20260508064008 70 360 0.0 1.0 0.00 0.00 0.00 30 1014.4
20260508063512 70 360 0.0 1.0 0.00 0.00 0.00 30 1014.5
20260508063013 70 360 0.0 1.0 0.00 0.00 0.00 29 1014.5
20260508062508 70 11 0.0 2.0 0.00 0.00 0.00 29 1014.5
20260508062008 70 360 0.0 2.0 0.00 0.00 0.00 29 1014.5
20260508061512 71 11 0.0 2.0 0.00 0.00 0.00 29 1014.5
20260508061009 71 360 0.0 2.0 0.00 0.00 0.00 29 1014.5
20260508060508 71 360 0.0 2.0 0.00 0.00 0.00 28 1014.5
20260508060012 71 10 0.0 2.0 0.00 0.00 0.00 28 1014.6
20260508055507 72 9 0.0 2.0 0.00 0.00 0.00 28 1014.6
20260508055005 72 360 0.0 2.0 0.00 0.00 0.00 27 1014.6
20260508054514 72 360 0.0 2.0 0.00 0.00 0.00 27 1014.6
20260508054008 73 11 0.0 1.0 0.00 0.00 0.00 27 1014.6
20260508053510 73 360 0.0 1.0 0.00 0.00 0.00 26 1014.6
20260508053011 74 11 0.0 3.0 0.00 0.00 0.00 25 1014.6
20260508052509 74 360 0.0 3.0 0.00 0.00 0.00 25 1014.5
20260508052009 74 10 0.0 4.0 0.00 0.00 0.00 25 1014.5
20260508051526 75 360 2.0 4.0 0.00 0.00 0.00 25 1014.5
20260508051006 75 360 0.0 5.0 0.00 0.00 0.00 24 1014.4
20260508050507 75 11 1.0 8.0 0.00 0.00 0.00 24 1014.4
20260508050015 75 360 3.0 8.0 0.00 0.00 0.00 23 1014.4
20260508045509 76 11 1.0 5.0 0.00 0.00 0.00 22 1014.2
20260508045005 75 360 0.0 5.0 0.00 0.00 0.00 22 1014.0
20260508044514 75 360 1.0 5.0 0.00 0.00 0.00 22 1014.0
20260508044009 75 8 0.0 3.0 0.00 0.00 0.00 23 1013.9
20260508043504 76 360 0.0 3.0 0.00 0.00 0.00 22 1013.8
20260508043019 77 360 0.0 3.0 0.00 0.00 0.00 21 1013.8
20260508042510 77 360 0.0 3.0 0.00 0.00 0.00 21 1013.7
20260508042008 77 360 0.0 2.0 0.00 0.00 0.00 21 1013.7
20260508041514 77 360 0.0 2.0 0.00 0.00 0.00 21 1013.6
20260508041008 77 360 0.0 1.0 0.00 0.00 0.00 20 1013.5
20260508040506 77 360 0.0 3.0 0.00 0.00 0.00 20 1013.5
20260508040013 78 360 1.0 6.0 0.00 0.00 0.00 20 1013.5
20260508035512 78 360 0.0 6.0 0.00 0.00 0.00 20 1013.4
20260508035005 77 360 2.0 5.0 0.00 0.00 0.00 20 1013.3
20260508034510 77 360 2.0 5.0 0.00 0.00 0.00 20 1013.2
20260508034009 77 360 0.0 2.0 0.00 0.00 0.00 20 1013.0
20260508033505 78 360 0.0 1.0 0.00 0.00 0.00 20 1012.9
20260508033011 78 360 0.0 1.0 0.00 0.00 0.00 20 1012.7
20260508032509 79 360 0.0 1.0 0.00 0.00 0.00 19 1012.6
20260508032006 79 360 0.0 2.0 0.00 0.00 0.00 19 1012.5
20260508031513 80 360 0.0 6.0 0.00 0.00 0.00 19 1012.4
20260508031008 80 360 0.0 7.0 0.00 0.00 0.00 19 1012.2
20260508030508 80 360 3.0 7.0 0.00 0.00 0.00 18 1012.1
20260508030010 80 360 1.0 11.0 0.00 0.00 0.00 18 1012.0
20260508025503 81 360 5.0 11.0 0.00 0.00 0.00 18 1011.9
20260508025004 81 360 6.0 12.0 0.00 0.00 0.00 18 1011.7
20260508024513 81 360 4.0 13.0 0.00 0.00 0.00 18 1011.7
20260508024001 81 360 6.0 13.0 0.00 0.00 0.00 17 1011.7
20260508023507 82 360 4.0 9.0 0.00 0.00 0.00 17 1011.7
20260508023010 83 360 3.0 9.0 0.00 0.00 0.00 17 1011.6
20260508022500 84 360 2.0 9.0 0.00 0.00 0.00 15 1011.5
20260508022006 84 360 3.0 9.0 0.00 0.00 0.00 13 1011.5
20260508021511 84 360 3.0 9.0 0.00 0.00 0.00 12 1011.4
20260508021010 84 360 3.0 9.0 0.00 0.00 0.00 12 1011.4
20260508020504 85 360 2.0 9.0 0.00 0.00 0.00 12 1011.2
20260508020014 85 360 5.0 10.0 0.00 0.00 0.00 12 1011.0
20260508015508 85 8 5.0 11.0 0.00 0.00 0.00 12 1010.9
20260508015005 86 8 5.0 12.0 0.00 0.00 0.00 12 1010.8
20260508014511 86 8 5.0 15.0 0.00 0.00 0.00 12 1010.8
20260508014009 86 10 4.0 15.0 0.00 0.00 0.00 12 1010.7
20260508013513 86 8 4.0 13.0 0.00 0.00 0.00 12 1010.7
20260508013012 86 10 6.0 15.0 0.00 0.00 0.00 12 1010.6
20260508012508 86 10 7.0 15.0 0.00 0.00 0.00 12 1010.6
20260508012007 87 8 7.0 12.0 0.00 0.00 0.00 12 1010.5
20260508011512 87 8 5.0 12.0 0.00 0.00 0.00 12 1010.4
20260508011009 87 8 5.0 14.0 0.00 0.00 0.00 12 1010.4
20260508010505 87 8 8.0 14.0 0.00 0.00 0.00 12 1010.3
20260508010010 88 35 6.0 18.0 0.00 0.00 0.00 12 1010.3
20260508005507 88 46 9.0 18.0 0.00 0.00 0.00 12 1010.2
20260508005005 88 54 4.0 15.0 0.00 0.00 0.00 12 1010.1
20260508004510 88 326 8.0 15.0 0.00 0.00 0.00 12 1010.1
20260508004011 88 288 5.0 14.0 0.00 0.00 0.00 12 1010.1
20260508003507 89 285 7.0 16.0 0.00 0.00 0.00 12 1010.1
20260508003009 89 278 7.0 16.0 0.00 0.00 0.00 12 1010.0
20260508002509 89 281 4.0 11.0 0.00 0.00 0.00 12 1010.0
20260508002008 89 282 6.0 13.0 0.00 0.00 0.00 12 1010.0
20260508001512 90 301 5.0 15.0 0.00 0.00 0.00 12 1010.0
20260508001007 90 319 3.0 15.0 0.00 0.00 0.00 12 1010.0
20260508000506 90 315 6.0 13.0 0.00 0.00 0.00 12 1009.8
20260508000010 90 236 5.0 11.0 0.00 0.00 0.00 12 1010.0
20260507235515 89 347 2.0 10.0 0.00 0.00 0.00 13 1010.0
20260507235004 90 301 6.0 10.0 0.00 0.00 0.00 12 1010.0
20260507234511 90 283 4.0 14.0 0.00 0.00 0.00 12 1010.0
20260507234008 90 323 7.0 16.0 0.00 0.00 0.00 12 1010.0
20260507233507 90 266 5.0 16.0 0.00 0.00 0.00 12 1010.0
20260507233009 91 253 4.0 11.0 0.00 0.00 0.00 12 1010.0
20260507232509 90 245 4.0 10.0 0.00 0.00 0.00 12 1009.9
20260507232008 89 252 6.0 13.0 0.00 0.00 0.00 13 1010.0
20260507231508 90 279 7.0 13.0 0.00 0.00 0.00 12 1009.9
20260507231007 91 296 2.0 12.0 0.00 0.00 0.00 12 1009.9
20260507230506 91 319 1.0 14.0 0.00 0.00 0.00 12 1009.9
20260507230013 91 338 1.0 14.0 0.00 0.00 0.00 12 1010.1
20260507225508 91 319 5.0 13.0 0.00 0.00 0.00 12 1010.1
20260507225005 91 316 7.0 15.0 0.00 0.00 0.00 12 1010.2
20260507224513 91 354 2.0 15.0 0.00 0.00 0.00 12 1010.2
20260507224007 91 325 1.0 12.0 0.00 0.00 0.00 12 1010.2
20260507223506 90 303 5.0 13.0 0.00 0.00 0.00 12 1010.2
20260507223012 89 314 5.0 13.0 0.00 0.00 0.00 13 1010.2
20260507222509 88 3 6.0 16.0 0.00 0.00 0.00 13 1010.2
20260507222004 89 257 8.0 16.0 0.00 0.00 0.00 13 1010.3
20260507221511 90 288 4.0 8.0 0.00 0.00 0.00 13 1010.4
20260507221008 91 311 2.0 6.0 0.00 0.00 0.00 12 1010.4
20260507220507 91 246 0.0 6.0 0.00 0.00 0.00 12 1010.4
20260507220009 90 124 0.0 7.0 0.00 0.00 0.00 13 1010.5
20260507215508 88 33 3.0 7.0 0.00 0.00 0.00 13 1010.8
20260507215005 88 75 2.0 6.0 0.00 0.00 0.00 13 1011.0
20260507214520 89 53 1.0 12.0 0.00 0.00 0.00 12 1010.9
20260507214009 89 13 1.0 12.0 0.00 0.00 0.00 12 1011.0
20260507213506 87 360 5.0 12.0 0.00 0.00 0.00 13 1011.1
20260507213016 88 1 6.0 14.0 0.00 0.00 0.00 13 1011.1
20260507212508 88 309 6.0 14.0 0.00 0.00 0.00 12 1011.0
20260507212005 89 359 7.0 14.0 0.00 0.00 0.00 12 1011.2
20260507211513 89 229 3.0 12.0 0.00 0.00 0.00 11 1011.2
20260507211008 91 339 4.0 12.0 0.00 0.00 0.00 11 1011.2
20260507210509 90 266 4.0 12.0 0.00 0.00 0.00 11 1011.2
20260507210029 91 63 1.0 10.0 0.00 0.00 0.00 11 1011.2
20260507205509 90 226 2.0 10.0 0.00 0.00 0.00 12 1011.3
20260507205007 91 232 3.0 10.0 0.00 0.00 0.00 11 1011.3
20260507204527 89 184 3.0 11.0 0.00 0.00 0.00 12 1011.4
20260507204007 88 146 2.0 11.0 0.00 0.00 0.00 12 1011.5
20260507203507 89 254 1.0 10.0 0.00 0.00 0.00 12 1011.7